DELTA 1 DEB, 7849

Orbit data source: Space-Track

DELTA 1 DEB, 7849 is space debris in SSO originally from a launch on Sun, 23 Jul 1972 UTC launched from the Air Force Western Test Range (AFWTR). Debris objects in space refer to the collection of defunct objects orbiting the Earth. Examples of debris include non-operational satellites, rocket bodies, and fragments generated from explosions, collisions, or faulty payload assembly.

Loading next visibility...
Identifier
7849, 1972-058V
Orbit
SSO
Country
Flag of USUS
Related business
Manufacturer
Unknown
Mission
Spacecraft
Bus & Motor
Unknown
Mass
Unknown
Launch date (UTC)
1972-07-23 (54 years ago)
Launch vehicle
Unknown
Launch site
Air Force Western Test Range (AFWTR)
Object type
Payload
Rocket body
Debris
Shape & HBR
Unknown shape, 0.1 m
Radar Cross Section
Medium (>0.1 m² and <1 m²)

Expand to show TLE details & history
Last TLE update: 22 hours ago

TLE from 22 hours ago
0 DELTA 1 DEB
1 07849U 72058V   26149.72245231  .00002502  00000-0  10452-2 0  9991
2 07849  98.0542 235.4947 0320611 107.4392 256.2093 14.02633394550621
Epoch: 2026-05-29T17:20Z
TLE epoch observation values (Epoch: 2026-05-29T17:20:19.879Z)
Latitude
-0°
Longitude
88.16312°
Altitude
950.084 km
Speed
7.345 km/s
True Right ascension
15h 41m 58s
True Declination
0° 00' 00"
Sunlit
Object was in full shadow at epoch
Visualization orbit readout
Latitude
Unknown
Longitude
Unknown
Altitude
Unknown
Speed
Unknown
Apparent Right ascension
Unknown
Apparent Declination
Unknown
Sunlit
N/A
Visualization observer readout
Local Sidereal Time
00:43:46
Azimuth
Unknown
Elevation
Unknown
Doppler factor
Unknown
Orbital elements
Apogee altitude
1,114.601 km
Perigee altitude
649.075 km
Semi-major axis
7,259.975 km
Eccentricity
0.03206
Inclination
98.0542°
RAAN
235.4947°
Arg. of periapsis
107.4392°
True anomaly
252.67729°
Mean anomaly
256.2093°
Eccentric anomaly
254.43966°
Mean motion
3.50865 °/min
Orbital period
102.6 mins
BSTAR
0.0010452
Loading maneuver chart data...
Computing Atmospheric mass density...
Loading historical data...
Loading historical data...
Loading historical data...
Loading historical data...
Loading historical data...
Loading historical data...
Loading historical data...

Documentation

Showing up to 5 results
|